EA3GYL La Torregassa ES current weather conditions

sailwx.info

Wind from 141 at 4 knots gusting 8

Air temperature 27.8° C
Dewpoint 18.7° C

Last reported at 2016-Jun-30 13:39 UTC.
Time now 2016-Jun-30 14:07 UTC

Location: N 41°17' E 001°31'.
View on Google Maps.

See reports from other nearby stations

  
Tides and Currents Weather Stations Pressure Air Temp Water Temp Dewpoint Dewpoint Depression Visibility Wind Speed Wind Dir Waves Ship Positions
date/time (UTC)wind fromknots sea level pressurealtimeterstation pressurevisibilityair tempwater tempwave heightnotes
2016-Jun-30 13:39 141 4 gusting 8 27.8
2016-Jun-30 13:23 123 3 gusting 10 27.2
2016-Jun-30 13:07 230 4 gusting 9 27.2
2016-Jun-30 12:50 121 4 gusting 9 27.2
2016-Jun-30 12:34 143 3 gusting 11 27.2
2016-Jun-30 12:18 102 4 gusting 14 27.2
2016-Jun-30 11:53 114 3 gusting 8 27.8
2016-Jun-30 11:37 102 5 gusting 10 27.8
2016-Jun-30 11:21 152 3 gusting 9 26.7
2016-Jun-30 11:04 133 4 gusting 9 26.7
2016-Jun-30 10:48 099 5 gusting 10 26.7
2016-Jun-30 10:31 159 5 gusting 9 26.7
2016-Jun-30 10:15 109 4 gusting 9 27.2
2016-Jun-30 09:18 100 3 gusting 9 26.7
2016-Jun-30 08:58 091 3 gusting 6 26.7
2016-Jun-30 08:38 062 2 gusting 6 25.6
2016-Jun-30 08:19 117 1 gusting 6 25.6
2016-Jun-30 08:03 065 1 gusting 6 24.4
2016-Jun-30 07:47 076 2 gusting 5 24.4
2016-Jun-30 07:27 056 2 gusting 5 23.9
2016-Jun-30 07:07 071 1 gusting 4 23.3
2016-Jun-30 06:47 062 0 gusting 4 23.3
2016-Jun-30 06:27 086 0 gusting 3 23.3
2016-Jun-30 06:08 066 22.8
2016-Jun-30 05:48 251 22.8
2016-Jun-30 05:28 251 21.1
2016-Jun-30 05:08 251 20.6
2016-Jun-30 04:48 251 20.6
2016-Jun-30 04:28 251 20.6
2016-Jun-30 04:09 272 21.1
2016-Jun-30 03:49 272 21.1
2016-Jun-30 03:29 271 20.6
2016-Jun-30 03:09 268 20.6
2016-Jun-30 02:49 247 20.0
2016-Jun-30 02:30 206 21.1
2016-Jun-30 02:10 342 21.1
2016-Jun-30 01:50 342 21.1
2016-Jun-30 01:30 342 21.1
2016-Jun-30 01:11 342 21.7
2016-Jun-30 00:50 293 21.7
2016-Jun-30 00:31 293 21.7
2016-Jun-30 00:12 029 21.7
2016-Jun-29 23:53 357 21.7
2016-Jun-29 23:36 100 21.7
2016-Jun-29 23:20 100 21.7
2016-Jun-29 23:04 100 22.2
2016-Jun-29 22:48 223 22.2
2016-Jun-29 22:32 223 22.2
2016-Jun-29 22:15 119 22.8
2016-Jun-29 21:50 226 1 gusting 4 23.9
2016-Jun-29 21:40 227 1 gusting 3 23.9
2016-Jun-29 21:30 230 1 gusting 4 23.3
2016-Jun-29 21:20 229 2 gusting 7 23.3
2016-Jun-29 21:10 224 0 gusting 4 22.8
2016-Jun-29 21:00 226 1 gusting 3 22.8
2016-Jun-29 20:50 227 0 gusting 3 22.8
2016-Jun-29 20:40 224 0 gusting 3 22.8
2016-Jun-29 20:30 22.8
2016-Jun-29 20:20 22.8
2016-Jun-29 20:10 22.8
2016-Jun-29 20:00 215 0 gusting 2 23.3
2016-Jun-29 19:50 212 0 gusting 2 23.3
2016-Jun-29 19:40 219 0 gusting 3 23.9
2016-Jun-29 19:30 211 1 gusting 4 23.9
2016-Jun-29 19:20 198 1 gusting 4 23.9
2016-Jun-29 19:06 155 0 gusting 3 23.9
2016-Jun-29 18:50 164 1 gusting 4 24.4
2016-Jun-29 18:31 148 2 gusting 6 25.0
2016-Jun-29 18:15 141 2 gusting 5 25.0
2016-Jun-29 17:59 121 2 gusting 5 25.0
2016-Jun-29 17:42 122 2 gusting 5 25.6
2016-Jun-29 17:26 070 2 gusting 6 26.1
2016-Jun-29 17:10 083 1 gusting 4 26.7
2016-Jun-29 16:54 113 1 gusting 6 26.7
2016-Jun-29 16:38 197 1 gusting 5 26.7
2016-Jun-29 16:22 215 1 gusting 6 26.1
2016-Jun-29 16:06 236 0 gusting 3 25.0
2016-Jun-29 15:49 212 1 gusting 6 24.4
2016-Jun-29 15:33 095 1 gusting 6 24.4
2016-Jun-29 15:17 184 1 gusting 5 25.0
2016-Jun-29 15:01 131 1 gusting 4 25.0
2016-Jun-29 14:45 157 1 gusting 4 25.0
2016-Jun-29 14:29 166 1 gusting 5 25.0
2016-Jun-29 14:13 157 3 gusting 8 25.0
2016-Jun-29 13:56 127 3 gusting 8 25.0
2016-Jun-29 13:40 133 3 gusting 8 25.0
2016-Jun-29 13:24 086 6 gusting 11 25.6
2016-Jun-29 13:08 118 6 gusting 12 25.6
2016-Jun-29 12:52 126 6 gusting 10 26.7
2016-Jun-29 12:36 117 5 gusting 12 27.2
2016-Jun-29 12:20 096 6 gusting 12 27.2
2016-Jun-29 12:03 119 6 gusting 13 27.2
2016-Jun-29 11:47 102 6 gusting 12 28.3
2016-Jun-29 11:31 072 4 gusting 8 28.9
2016-Jun-29 11:15 084 3 gusting 9 28.3
2016-Jun-29 10:58 132 5 gusting 9 27.8
2016-Jun-29 10:42 145 5 gusting 12 28.3
2016-Jun-29 10:26 143 5 gusting 11 28.3
2016-Jun-29 10:10 072 4 gusting 9 28.3
2016-Jun-29 09:54 192 4 gusting 9 27.8
2016-Jun-29 09:37 096 3 gusting 6 27.2
2016-Jun-29 09:21 148 2 gusting 6 26.1
2016-Jun-29 09:05 110 1 gusting 6 26.1
2016-Jun-29 08:49 196 2 gusting 6 26.1
2016-Jun-29 08:33 082 2 gusting 6 26.1
2016-Jun-29 08:16 117 0 gusting 5 26.1
2016-Jun-29 08:00 092 25.6
2016-Jun-29 07:44 080 1 gusting 3 25.0
2016-Jun-29 07:28 102 24.4
2016-Jun-29 07:11 261 23.3
2016-Jun-29 06:55 148 22.2
2016-Jun-29 06:39 108 21.1
2016-Jun-29 06:23 215 20.6
2016-Jun-29 06:06 215 20.0
2016-Jun-29 05:50 215 20.0
2016-Jun-29 05:34 240 0 gusting 2 19.4
2016-Jun-29 05:18 249 0 gusting 2 19.4
2016-Jun-29 05:02 080 19.4
2016-Jun-29 04:46 080 0 gusting 2 20.0
2016-Jun-29 04:30 340 19.4
2016-Jun-29 04:14 353 19.4
2016-Jun-29 03:57 006 19.4
2016-Jun-29 03:41 352 20.0
2016-Jun-29 03:25 352 20.0
2016-Jun-29 03:09 258 20.0
2016-Jun-29 02:52 258 20.6
2016-Jun-29 02:36 258 20.6
2016-Jun-29 02:20 258 20.6
2016-Jun-29 02:04 263 20.6
2016-Jun-29 01:48 259 20.6
2016-Jun-29 01:32 258 20.6
2016-Jun-29 01:16 259 20.6
2016-Jun-29 00:59 259 20.6
2016-Jun-29 00:43 259 0 gusting 1 20.6
2016-Jun-29 00:27 257 20.6
2016-Jun-29 00:11 252 20.6
2016-Jun-28 23:55 252 20.6
2016-Jun-28 23:39 262 20.6
2016-Jun-28 23:23 262 20.6
2016-Jun-28 23:07 012 20.6
2016-Jun-28 22:50 013 20.6
2016-Jun-28 22:34 013 20.6
2016-Jun-28 22:18 013 20.6
2016-Jun-28 22:01 013 20.6
2016-Jun-28 21:45 009 20.6
2016-Jun-28 21:29 048 20.6
2016-Jun-28 21:13 140 21.1
2016-Jun-28 20:57 140 21.7
2016-Jun-28 20:41 197 22.2
2016-Jun-28 20:25 198 22.2
2016-Jun-28 20:09 202 1 gusting 3 22.8
2016-Jun-28 19:52 208 23.3
2016-Jun-28 19:36 185 1 gusting 5 23.3
2016-Jun-28 19:20 200 2 gusting 6 23.9
2016-Jun-28 19:04 179 3 gusting 6 24.4
2016-Jun-28 18:48 197 3 gusting 8 25.0
2016-Jun-28 18:32 204 3 gusting 8 25.6
2016-Jun-28 18:16 173 4 gusting 7 26.1
2016-Jun-28 17:59 183 5 gusting 10 26.7
2016-Jun-28 17:43 225 5 gusting 10 26.7
2016-Jun-28 17:27 235 5 gusting 10 27.2
2016-Jun-28 17:11 195 4 gusting 9 27.2
2016-Jun-28 16:55 191 5 gusting 9 27.2
2016-Jun-28 16:39 215 2 gusting 9 26.7
2016-Jun-28 16:22 210 4 gusting 10 26.7
2016-Jun-28 16:06 168 3 gusting 11 26.7
2016-Jun-28 15:50 112 4 gusting 8 26.7
2016-Jun-28 15:34 192 6 gusting 10 27.2
2016-Jun-28 15:17 157 4 gusting 8 27.8
2016-Jun-28 15:01 200 4 gusting 9 27.8
2016-Jun-28 14:45 190 6 gusting 13 27.2
2016-Jun-28 14:29 171 6 gusting 14 27.2
2016-Jun-28 14:13 134 6 gusting 14 27.2